Location: Im Fang
(46.6019°N, 7.2397°E)
Time: 05:19:49
(UTC+00:00)

CZ-2C R/B - Pass Details

Date: 08 December 2019
Orbit: 640 x 705 km, 98.4° (Epoch: 18 January)

Event Time Altitude Azimuth Distance (km) Brightness Sun altitude
Rises 06:21:11 0° 172° (S) 3,043 7.6 -6.9°
Reaches altitude 10° 06:23:25 10° 175° (S) 2,140 6.8 -6.6°
Maximum altitude 06:28:05 66° 258° (WSW) 766 3.9 -5.8°
Drops below altitude 10° 06:32:51 10° 341° (NNW) 2,182 5.9 -5.1°
Sets 06:35:09 0° 344° (NNW) 3,108 6.7 -4.8°
